Date String (YYYY-MM-DD hh:mm:ss) UTC,Instrument flags,absolute air pressure of the measurement (hPa),sample flow rate (lpm),inlet stack bypass flow (lpm),air temperature of the measurement (°C),ambient temperature measured by the external sensor (°C),aerosol sample conditioner tube jacket temperature (°C),OPC LED temperature (°C),internal box temperature (°C),relative humidity of the measurement (%),span deviation,mass concentration of particles derived from Lorenz-Mie calculation of OPC scattering (μg/m³),mass concentration of particles derived from Lorenz-Mie calculation of OPC scattering (μg/m³),mass concentration of particles derived from Lorenz-Mie calculation of OPC scattering (μg/m³)
DateTimeUTC,F1_M11,P_M11,Q1_M11,Q2_M11,T1_M11,T2_M11,T3_M11,T4_M11,T5_M11,U1_M11,ZSPAN_M11,X0_M11,X2_M11,X1_M11
2023-07-23 08:00:00,SystemResetWarning,0834.1,5.00,000.00,029.4,027.9,000.0,037.8,031.0,22.1,0000.1,0010.56,0007.55,0007.21
2023-07-23 08:01:00,SystemResetWarning,0834.1,5.01,000.00,029.4,028.0,000.0,037.8,031.0,21.9,0000.0,0010.38,0007.52,0007.21
2023-07-23 08:02:00,SystemResetWarning,0834.1,5.00,000.00,029.4,028.1,000.0,037.9,031.0,21.7,0000.0,0010.35,0007.53,0007.22
2023-07-23 08:03:00,SystemResetWarning,0834.2,5.00,000.00,029.4,028.1,000.0,037.9,031.1,21.4,0000.0,0010.27,0007.49,0007.22
2023-07-23 08:04:00,SystemResetWarning,0834.2,5.00,000.00,029.5,028.2,000.0,037.9,031.1,22.2,0000.0,0010.37,0007.51,0007.23
2023-07-23 08:05:00,SystemResetWarning,0834.2,4.99,000.00,029.5,028.3,000.0,037.9,031.1,22.2,0000.0,0010.63,0007.56,0007.24
2023-07-23 08:06:00,SystemResetWarning,0834.2,4.99,000.00,029.5,028.3,000.0,037.9,031.2,22.8,0000.0,0010.71,0007.59,0007.25
2023-07-23 08:07:00,SystemResetWarning,0834.2,5.00,000.00,029.6,028.3,000.0,037.9,031.2,22.8,0000.0,0010.58,0007.58,0007.26
2023-07-23 08:08:00,SystemResetWarning,0834.2,5.01,000.00,029.6,028.4,000.0,038.0,031.2,23.2,0000.0,0010.65,0007.63,0007.27
2023-07-23 08:09:00,SystemResetWarning,0834.1,5.00,000.00,029.6,028.4,000.0,038.0,031.2,22.4,0000.0,0010.65,0007.65,0007.29
2023-07-23 08:10:00,SystemResetWarning,0834.1,5.00,000.00,029.6,028.5,000.0,038.0,031.3,22.4,0000.0,0010.59,0007.65,0007.29
2023-07-23 08:11:00,SystemResetWarning,0834.2,5.01,000.00,029.7,028.5,000.0,038.0,031.3,23.0,0000.0,0010.64,0007.70,0007.31
2023-07-23 08:12:00,SystemResetWarning,0834.2,5.00,000.00,029.7,028.5,000.0,038.1,031.3,22.2,0000.0,0010.67,0007.72,0007.33
2023-07-23 08:13:00,SystemResetWarning,0834.2,4.99,000.00,029.7,028.5,000.0,038.1,031.3,21.9,0000.0,0010.71,0007.74,0007.34
2023-07-23 08:14:00,SystemResetWarning,0834.1,5.00,000.00,029.7,028.3,000.0,038.1,031.4,21.9,0000.0,0010.75,0007.76,0007.34
2023-07-23 08:15:00,SystemResetWarning,0834.1,5.00,000.00,029.7,026.4,000.0,038.0,031.1,22.7,0000.0,0010.79,0007.78,0007.35
2023-07-23 08:16:00,SystemResetWarning,0834.1,5.01,000.00,029.6,025.3,000.0,037.9,030.9,23.3,0000.0,0011.27,0007.76,0007.36
2023-07-23 08:17:00,SystemResetWarning,0834.1,5.00,000.00,029.5,025.3,000.0,037.8,030.7,23.4,0000.0,0011.15,0007.73,0007.35
2023-07-23 08:18:00,SystemResetWarning,0834.1,5.01,000.00,029.4,025.6,000.0,037.9,030.6,23.5,0000.0,0011.18,0007.71,0007.34
2023-07-23 08:19:00,SystemResetWarning,0834.1,5.00,000.00,029.4,026.0,000.0,037.9,030.7,23.8,0000.0,0011.19,0007.67,0007.33
2023-07-23 08:20:00,SystemResetWarning,0834.1,5.00,000.00,029.3,026.4,000.0,037.9,030.7,23.3,0000.0,0011.24,0007.69,0007.33
2023-07-23 08:21:00,SystemResetWarning,0834.1,5.00,000.00,029.3,026.8,000.0,037.9,030.7,23.2,0000.0,0011.33,0007.69,0007.32
2023-07-23 08:22:00,SystemResetWarning,0834.1,4.99,000.00,029.3,027.0,000.0,037.9,030.8,23.2,0000.0,0011.24,0007.64,0007.30
2023-07-23 08:23:00,SystemResetWarning,0834.1,5.00,000.00,029.3,027.3,000.0,037.9,030.8,23.6,0000.0,0011.14,0007.59,0007.28
2023-07-23 08:24:00,SystemResetWarning,0834.1,5.00,000.00,029.3,027.5,000.0,037.9,030.9,23.3,-000.6,0011.15,0007.58,0007.26
2023-07-23 08:25:00,SystemResetWarning,0834.1,5.01,000.00,029.4,027.6,000.0,037.9,030.9,23.1,-000.4,0011.33,0007.60,0007.26
2023-07-23 08:26:00,SystemResetWarning,0834.1,5.01,000.00,029.4,027.8,000.0,037.9,030.9,22.8,-000.0,0012.04,0007.62,0007.26
2023-07-23 08:27:00,SystemResetWarning,0834.1,5.01,000.00,029.4,027.9,000.0,037.9,031.0,22.2,0000.0,0011.50,0007.62,0007.26
2023-07-23 08:28:00,SystemResetWarning,0834.1,4.99,000.00,029.4,028.0,000.0,037.9,031.0,22.0,0000.0,0011.34,0007.64,0007.27
2023-07-23 08:29:00,SystemResetWarning,0834.0,4.99,000.00,029.4,028.0,000.0,037.9,031.0,21.7,0000.0,0011.35,0007.68,0007.29
2023-07-23 08:30:00,SystemResetWarning,0834.0,4.99,000.00,029.5,028.1,000.0,037.9,031.1,21.6,0000.0,0011.32,0007.70,0007.30
2023-07-23 08:31:00,SystemResetWarning,0834.1,5.00,000.00,029.5,028.2,000.0,037.9,031.1,22.2,0000.0,0011.38,0007.71,0007.30
2023-07-23 08:32:00,SystemResetWarning,0834.1,5.00,000.00,029.5,028.2,000.0,037.9,031.1,21.8,0000.1,0011.30,0007.72,0007.31
2023-07-23 08:33:00,SystemResetWarning,0834.1,5.00,000.00,029.5,028.2,000.0,037.9,031.1,21.1,0000.4,0011.41,0007.74,0007.33
2023-07-23 08:34:00,SystemResetWarning,0834.1,5.00,000.00,029.6,028.3,000.0,038.0,031.2,21.0,0000.7,0011.46,0007.77,0007.36
2023-07-23 08:35:00,SystemResetWarning,0834.1,5.00,000.00,029.6,028.3,000.0,038.0,031.2,20.3,0000.3,0011.44,0007.79,0007.39
2023-07-23 08:36:00,SystemResetWarning,0834.1,5.00,000.00,029.6,028.3,000.0,038.0,031.2,20.3,0000.0,0011.37,0007.80,0007.39
2023-07-23 08:37:00,SystemResetWarning,0834.1,5.00,000.00,029.6,028.4,000.0,038.0,031.2,20.2,0000.0,0010.69,0007.80,0007.40
2023-07-23 08:38:00,SystemResetWarning,0834.1,5.00,000.00,029.7,028.4,000.0,038.0,031.3,20.1,0001.2,0010.60,0007.81,0007.41
2023-07-23 08:39:00,SystemResetWarning,0834.1,4.99,000.00,029.7,028.4,000.0,038.1,031.3,19.6,0001.5,0011.36,0007.83,0007.42
2023-07-23 08:40:00,SystemResetWarning,0834.1,4.99,000.00,029.7,028.4,000.0,038.1,031.3,19.8,0001.2,0011.48,0007.82,0007.42
2023-07-23 08:41:00,SystemResetWarning,0834.1,5.02,000.00,029.7,028.5,000.0,038.1,031.3,20.0,0000.5,0011.62,0007.84,0007.44
2023-07-23 08:42:00,SystemResetWarning,0834.1,5.00,000.00,029.7,028.5,000.0,038.1,031.3,20.2,0000.3,0011.63,0007.84,0007.45
2023-07-23 08:43:00,SystemResetWarning,0834.1,4.99,000.00,029.8,028.5,000.0,038.1,031.4,19.9,0000.3,0011.78,0007.82,0007.44
2023-07-23 08:44:00,SystemResetWarning,0834.1,4.99,000.00,029.8,028.5,000.0,038.2,031.4,19.8,0000.0,0011.75,0007.81,0007.44
2023-07-23 08:45:00,SystemResetWarning,0834.1,5.00,000.00,029.8,028.5,000.0,038.2,031.4,19.6,-000.2,0011.61,0007.80,0007.43
2023-07-23 08:46:00,SystemResetWarning,0834.0,4.99,000.00,029.8,027.4,000.0,038.1,031.3,19.8,-000.0,0011.64,0007.81,0007.43
2023-07-23 08:47:00,SystemResetWarning,0834.1,5.00,000.00,029.7,025.5,000.0,038.0,031.0,19.6,-000.2,0011.84,0007.81,0007.43
2023-07-23 08:48:00,SystemResetWarning,0834.0,5.00,000.00,029.6,025.1,000.0,037.9,030.8,19.4,-000.0,0012.49,0007.81,0007.42
2023-07-23 08:49:00,SystemResetWarning,0834.0,5.01,000.00,029.5,025.3,000.0,037.9,030.6,19.3,0000.2,0012.48,0007.79,0007.40
2023-07-23 08:50:00,SystemResetWarning,0834.0,4.99,000.00,029.4,025.8,000.0,038.0,030.6,19.3,0000.4,0011.65,0007.76,0007.39
2023-07-23 08:51:00,SystemResetWarning,0834.0,4.99,000.00,029.4,026.2,000.0,038.0,030.7,19.5,0000.6,0011.60,0007.76,0007.38
2023-07-23 08:52:00,SystemResetWarning,0834.0,5.01,000.00,029.4,026.6,000.0,038.0,030.7,19.5,0000.9,0011.91,0007.76,0007.37
2023-07-23 08:53:00,SystemResetWarning,0834.0,5.01,000.00,029.4,026.9,000.0,037.9,030.8,19.6,0001.1,0011.95,0007.78,0007.35
2023-07-23 08:54:00,SystemResetWarning,0834.0,4.99,000.00,029.4,027.2,000.0,037.9,030.8,19.8,0001.3,0011.84,0007.79,0007.34
2023-07-23 08:55:00,SystemResetWarning,0834.0,5.00,000.00,029.4,027.4,000.0,037.9,030.9,20.3,0001.7,0011.76,0007.79,0007.33
2023-07-23 08:56:00,SystemResetWarning,0834.0,5.00,000.00,029.4,027.5,000.0,037.9,030.9,21.0,0002.1,0011.82,0007.77,0007.32
2023-07-23 08:57:00,SystemResetWarning,0834.0,5.00,000.00,029.4,027.7,000.0,037.9,030.9,21.0,0001.8,0011.81,0007.74,0007.28
2023-07-23 08:58:00,SystemResetWarning,0834.0,4.99,000.00,029.4,027.8,000.0,037.9,031.0,21.2,0001.3,0011.61,0007.72,0007.27
2023-07-23 08:59:00,SystemResetWarning,0834.0,5.00,000.00,029.4,027.9,000.0,037.9,031.0,21.8,0001.6,0010.93,0007.67,0007.26
